Location: Dover
(48.8500°N, 53.9833°W)
Time: 06:29:12
(UTC+00:00)

Cosmos 2278 Rocket - Pass Details

Date: 14 November 2025
Orbit: 841 x 843 km, 71.0° (Epoch: 10 December)

Event Time Altitude Azimuth Distance (km) Brightness Sun altitude
Rises 21:57:52 0° 200° (SSW) 3,384 5.7 -19.9°
Reaches altitude 10° 22:00:18 10° 199° (SSW) 2,453 4.9 -20.3°
Maximum altitude 22:05:55 74° 115° (ESE) 877 2.1 -21.2°
Enters shadow 22:08:47 30° 36° (NE) 1,468 3.1 -21.7°
